owner,sensor,date,latitude,longitude,vertical_datum,sea_water_practical_salinity,qcFlag 
NERRS,ioos:station:NOAA.NERRS:rkblhwq:1,2019-08-01T01:45:00Z,26.0257,-81.7332,0.77,23.4,11111222 
NERRS,ioos:station:NOAA.NERRS:rkblhwq:1,2019-08-01T02:45:00Z,26.0257,-81.7332,0.86,21.0,11111222 
NERRS,ioos:station:NOAA.NERRS:rkblhwq:1,2019-08-01T03:45:00Z,26.0257,-81.7332,1.02,24.3,11111222 
NERRS,ioos:station:NOAA.NERRS:rkblhwq:1,2019-08-01T04:45:00Z,26.0257,-81.7332,1.19,26.6,11111222 
NERRS,ioos:station:NOAA.NERRS:rkblhwq:1,2019-08-01T05:45:00Z,26.0257,-81.7332,1.34,27.5,11111222 
NERRS,ioos:station:NOAA.NERRS:rkblhwq:1,2019-08-01T06:45:00Z,26.0257,-81.7332,1.42,27.6,11111222 
NERRS,ioos:station:NOAA.NERRS:rkblhwq:1,2019-08-01T07:45:00Z,26.0257,-81.7332,1.49,27.7,11111222 
NERRS,ioos:station:NOAA.NERRS:rkblhwq:1,2019-08-01T08:45:00Z,26.0257,-81.7332,1.5,27.3,11111222 
NERRS,ioos:station:NOAA.NERRS:rkblhwq:1,2019-08-01T09:45:00Z,26.0257,-81.7332,1.38,27.0,11111222 
NERRS,ioos:station:NOAA.NERRS:rkblhwq:1,2019-08-01T10:45:00Z,26.0257,-81.7332,1.24,27.1,11111222 
NERRS,ioos:station:NOAA.NERRS:rkblhwq:1,2019-08-01T11:45:00Z,26.0257,-81.7332,1.11,24.5,11111222 
NERRS,ioos:station:NOAA.NERRS:rkblhwq:1,2019-08-01T13:45:00Z,26.0257,-81.7332,1.2,25.7,11111222 
NERRS,ioos:station:NOAA.NERRS:rkblhwq:1,2019-08-01T14:45:00Z,26.0257,-81.7332,1.38,25.3,11111222 
NERRS,ioos:station:NOAA.NERRS:rkblhwq:1,2019-08-01T15:45:00Z,26.0257,-81.7332,1.56,27.2,11111222 
NERRS,ioos:station:NOAA.NERRS:rkblhwq:1,2019-08-01T16:45:00Z,26.0257,-81.7332,1.7,28.7,11111222 
NERRS,ioos:station:NOAA.NERRS:rkblhwq:1,2019-08-01T17:45:00Z,26.0257,-81.7332,1.79,30.0,11111222 
NERRS,ioos:station:NOAA.NERRS:rkblhwq:1,2019-08-01T18:45:00Z,26.0257,-81.7332,1.84,30.9,11111222 
NERRS,ioos:station:NOAA.NERRS:rkblhwq:1,2019-08-01T19:45:00Z,26.0257,-81.7332,1.77,29.8,11111222 
NERRS,ioos:station:NOAA.NERRS:rkblhwq:1,2019-08-01T20:45:00Z,26.0257,-81.7332,1.64,27.1,11111222 
NERRS,ioos:station:NOAA.NERRS:rkblhwq:1,2019-08-01T21:45:00Z,26.0257,-81.7332,1.47,27.5,11111222 
NERRS,ioos:station:NOAA.NERRS:rkblhwq:1,2019-08-01T22:45:00Z,26.0257,-81.7332,1.28,26.9,11111222 
NERRS,ioos:station:NOAA.NERRS:rkblhwq:1,2019-08-01T23:45:00Z,26.0257,-81.7332,1.1,23.2,11111222 
NERRS,ioos:station:NOAA.NERRS:rkblhwq:1,2019-08-02T01:45:00Z,26.0257,-81.7332,0.83,22.7,11111222 
NERRS,ioos:station:NOAA.NERRS:rkblhwq:1,2019-08-02T02:45:00Z,26.0257,-81.7332,0.83,17.8,11111222 
NERRS,ioos:station:NOAA.NERRS:rkblhwq:1,2019-08-02T03:45:00Z,26.0257,-81.7332,0.95,23.1,11111222 
NERRS,ioos:station:NOAA.NERRS:rkblhwq:1,2019-08-02T04:45:00Z,26.0257,-81.7332,1.11,24.1,11111222 
NERRS,ioos:station:NOAA.NERRS:rkblhwq:1,2019-08-02T05:45:00Z,26.0257,-81.7332,1.3,25.5,11111222 
NERRS,ioos:station:NOAA.NERRS:rkblhwq:1,2019-08-02T06:45:00Z,26.0257,-81.7332,1.48,26.8,11111222 
NERRS,ioos:station:NOAA.NERRS:rkblhwq:1,2019-08-02T07:45:00Z,26.0257,-81.7332,1.6,27.3,11111222 
NERRS,ioos:station:NOAA.NERRS:rkblhwq:1,2019-08-02T08:45:00Z,26.0257,-81.7332,1.59,26.3,11111222 
NERRS,ioos:station:NOAA.NERRS:rkblhwq:1,2019-08-02T09:45:00Z,26.0257,-81.7332,1.48,26.9,11111222 
NERRS,ioos:station:NOAA.NERRS:rkblhwq:1,2019-08-02T10:45:00Z,26.0257,-81.7332,1.35,26.7,11111222 
NERRS,ioos:station:NOAA.NERRS:rkblhwq:1,2019-08-02T12:45:00Z,26.0257,-81.7332,1.19,25.2,11111222 
NERRS,ioos:station:NOAA.NERRS:rkblhwq:1,2019-08-02T13:45:00Z,26.0257,-81.7332,1.24,26.0,11111222 
NERRS,ioos:station:NOAA.NERRS:rkblhwq:1,2019-08-02T14:45:00Z,26.0257,-81.7332,1.4,24.4,11111222 
NERRS,ioos:station:NOAA.NERRS:rkblhwq:1,2019-08-02T15:45:00Z,26.0257,-81.7332,1.59,26.5,11111222 
NERRS,ioos:station:NOAA.NERRS:rkblhwq:1,2019-08-02T16:45:00Z,26.0257,-81.7332,1.75,27.3,11111222 
NERRS,ioos:station:NOAA.NERRS:rkblhwq:1,2019-08-02T17:45:00Z,26.0257,-81.7332,1.82,29.6,11111222 
NERRS,ioos:station:NOAA.NERRS:rkblhwq:1,2019-08-02T18:45:00Z,26.0257,-81.7332,1.89,30.4,11111222 
NERRS,ioos:station:NOAA.NERRS:rkblhwq:1,2019-08-02T19:45:00Z,26.0257,-81.7332,1.91,31.6,11111222 
NERRS,ioos:station:NOAA.NERRS:rkblhwq:1,2019-08-02T20:45:00Z,26.0257,-81.7332,1.83,31.0,11111222 
NERRS,ioos:station:NOAA.NERRS:rkblhwq:1,2019-08-02T21:45:00Z,26.0257,-81.7332,1.72,29.4,11111222 
NERRS,ioos:station:NOAA.NERRS:rkblhwq:1,2019-08-02T22:45:00Z,26.0257,-81.7332,1.58,28.4,11111222 
NERRS,ioos:station:NOAA.NERRS:rkblhwq:1,2019-08-02T23:45:00Z,26.0257,-81.7332,1.4,28.7,11111222 
NERRS,ioos:station:NOAA.NERRS:rkblhwq:1,2019-08-03T00:45:00Z,26.0257,-81.7332,1.21,27.7,11111222 
NERRS,ioos:station:NOAA.NERRS:rkblhwq:1,2019-08-03T01:45:00Z,26.0257,-81.7332,1.05,27.1,11111222 
NERRS,ioos:station:NOAA.NERRS:rkblhwq:1,2019-08-03T02:45:00Z,26.0257,-81.7332,0.94,26.7,11111222 
NERRS,ioos:station:NOAA.NERRS:rkblhwq:1,2019-08-03T04:45:00Z,26.0257,-81.7332,1.18,23.4,11111222 
NERRS,ioos:station:NOAA.NERRS:rkblhwq:1,2019-08-03T05:45:00Z,26.0257,-81.7332,1.36,25.2,11111222 
NERRS,ioos:station:NOAA.NERRS:rkblhwq:1,2019-08-03T06:45:00Z,26.0257,-81.7332,1.51,26.7,11111222 
NERRS,ioos:station:NOAA.NERRS:rkblhwq:1,2019-08-03T08:45:00Z,26.0257,-81.7332,1.7,27.9,11111222 
NERRS,ioos:station:NOAA.NERRS:rkblhwq:1,2019-08-03T10:30:00Z,26.0257,-81.7332,1.56,27.0,11111222 
NERRS,ioos:station:NOAA.NERRS:rkblhwq:1,2019-08-03T11:45:00Z,26.0257,-81.7332,1.42,27.1,11111222 
NERRS,ioos:station:NOAA.NERRS:rkblhwq:1,2019-08-03T12:45:00Z,26.0257,-81.7332,1.3,26.7,11111222 
NERRS,ioos:station:NOAA.NERRS:rkblhwq:1,2019-08-03T13:45:00Z,26.0257,-81.7332,1.24,25.8,11111222 
NERRS,ioos:station:NOAA.NERRS:rkblhwq:1,2019-08-03T14:45:00Z,26.0257,-81.7332,1.29,26.2,11111222 
NERRS,ioos:station:NOAA.NERRS:rkblhwq:1,2019-08-03T15:45:00Z,26.0257,-81.7332,1.43,23.3,11111222 
NERRS,ioos:station:NOAA.NERRS:rkblhwq:1,2019-08-03T16:45:00Z,26.0257,-81.7332,1.59,25.6,11111222 
NERRS,ioos:station:NOAA.NERRS:rkblhwq:1,2019-08-03T17:45:00Z,26.0257,-81.7332,1.72,26.3,11111222 
NERRS,ioos:station:NOAA.NERRS:rkblhwq:1,2019-08-03T18:45:00Z,26.0257,-81.7332,1.81,27.7,11111222 
NERRS,ioos:station:NOAA.NERRS:rkblhwq:1,2019-08-03T19:45:00Z,26.0257,-81.7332,1.87,28.8,11111222 
NERRS,ioos:station:NOAA.NERRS:rkblhwq:1,2019-08-03T20:45:00Z,26.0257,-81.7332,1.86,29.8,11111222 
NERRS,ioos:station:NOAA.NERRS:rkblhwq:1,2019-08-03T21:45:00Z,26.0257,-81.7332,1.78,28.4,11111222 
NERRS,ioos:station:NOAA.NERRS:rkblhwq:1,2019-08-03T22:45:00Z,26.0257,-81.7332,1.67,27.4,11111222 
NERRS,ioos:station:NOAA.NERRS:rkblhwq:1,2019-08-03T23:45:00Z,26.0257,-81.7332,1.52,26.2,11111222 
NERRS,ioos:station:NOAA.NERRS:rkblhwq:1,2019-08-04T00:45:00Z,26.0257,-81.7332,1.34,26.8,11111222 
NERRS,ioos:station:NOAA.NERRS:rkblhwq:1,2019-08-04T01:45:00Z,26.0257,-81.7332,1.16,25.6,11111222 
NERRS,ioos:station:NOAA.NERRS:rkblhwq:1,2019-08-04T02:45:00Z,26.0257,-81.7332,1.02,25.5,11111222 
NERRS,ioos:station:NOAA.NERRS:rkblhwq:1,2019-08-04T03:45:00Z,26.0257,-81.7332,0.96,22.8,11111222 
NERRS,ioos:station:NOAA.NERRS:rkblhwq:1,2019-08-04T04:45:00Z,26.0257,-81.7332,1.1,24.4,11111222 
NERRS,ioos:station:NOAA.NERRS:rkblhwq:1,2019-08-04T05:45:00Z,26.0257,-81.7332,1.27,24.4,11111222 
NERRS,ioos:station:NOAA.NERRS:rkblhwq:1,2019-08-04T06:45:00Z,26.0257,-81.7332,1.45,25.3,11111222 
NERRS,ioos:station:NOAA.NERRS:rkblhwq:1,2019-08-04T07:45:00Z,26.0257,-81.7332,1.62,26.4,11111222 
NERRS,ioos:station:NOAA.NERRS:rkblhwq:1,2019-08-04T08:45:00Z,26.0257,-81.7332,1.71,27.1,11111222 
NERRS,ioos:station:NOAA.NERRS:rkblhwq:1,2019-08-04T09:45:00Z,26.0257,-81.7332,1.73,26.8,11111222 
NERRS,ioos:station:NOAA.NERRS:rkblhwq:1,2019-08-04T10:45:00Z,26.0257,-81.7332,1.66,26.0,11111222 
NERRS,ioos:station:NOAA.NERRS:rkblhwq:1,2019-08-04T11:45:00Z,26.0257,-81.7332,1.55,25.6,11111222 
NERRS,ioos:station:NOAA.NERRS:rkblhwq:1,2019-08-04T12:45:00Z,26.0257,-81.7332,1.42,25.4,11111222 
NERRS,ioos:station:NOAA.NERRS:rkblhwq:1,2019-08-04T13:45:00Z,26.0257,-81.7332,1.28,23.6,11111222 
NERRS,ioos:station:NOAA.NERRS:rkblhwq:1,2019-08-04T14:45:00Z,26.0257,-81.7332,1.18,24.7,11111222 
NERRS,ioos:station:NOAA.NERRS:rkblhwq:1,2019-08-04T15:45:00Z,26.0257,-81.7332,1.22,24.3,11111222 
NERRS,ioos:station:NOAA.NERRS:rkblhwq:1,2019-08-04T16:45:00Z,26.0257,-81.7332,1.37,22.5,11111222 
NERRS,ioos:station:NOAA.NERRS:rkblhwq:1,2019-08-04T17:45:00Z,26.0257,-81.7332,1.49,25.7,11111222 
NERRS,ioos:station:NOAA.NERRS:rkblhwq:1,2019-08-04T18:45:00Z,26.0257,-81.7332,1.62,26.0,11111222 
NERRS,ioos:station:NOAA.NERRS:rkblhwq:1,2019-08-04T19:45:00Z,26.0257,-81.7332,1.72,27.3,11111222 
NERRS,ioos:station:NOAA.NERRS:rkblhwq:1,2019-08-04T20:45:00Z,26.0257,-81.7332,1.77,27.9,11111222 
NERRS,ioos:station:NOAA.NERRS:rkblhwq:1,2019-08-04T21:45:00Z,26.0257,-81.7332,1.76,28.1,11111222 
NERRS,ioos:station:NOAA.NERRS:rkblhwq:1,2019-08-04T22:45:00Z,26.0257,-81.7332,1.68,26.5,11111222 
NERRS,ioos:station:NOAA.NERRS:rkblhwq:1,2019-08-04T23:45:00Z,26.0257,-81.7332,1.55,27.5,11111222 
NERRS,ioos:station:NOAA.NERRS:rkblhwq:1,2019-08-05T00:45:00Z,26.0257,-81.7332,1.39,27.3,11111222 
NERRS,ioos:station:NOAA.NERRS:rkblhwq:1,2019-08-05T01:45:00Z,26.0257,-81.7332,1.23,26.4,11111222 
NERRS,ioos:station:NOAA.NERRS:rkblhwq:1,2019-08-05T02:45:00Z,26.0257,-81.7332,1.08,23.8,11111222 
NERRS,ioos:station:NOAA.NERRS:rkblhwq:1,2019-08-05T03:45:00Z,26.0257,-81.7332,0.98,23.0,11111222 
NERRS,ioos:station:NOAA.NERRS:rkblhwq:1,2019-08-05T04:45:00Z,26.0257,-81.7332,1.01,22.3,11111222 
NERRS,ioos:station:NOAA.NERRS:rkblhwq:1,2019-08-05T05:45:00Z,26.0257,-81.7332,1.18,20.7,11111222 
NERRS,ioos:station:NOAA.NERRS:rkblhwq:1,2019-08-05T06:45:00Z,26.0257,-81.7332,1.36,23.4,11111222 
NERRS,ioos:station:NOAA.NERRS:rkblhwq:1,2019-08-05T08:45:00Z,26.0257,-81.7332,1.68,25.5,11111222 
NERRS,ioos:station:NOAA.NERRS:rkblhwq:1,2019-08-05T09:45:00Z,26.0257,-81.7332,1.75,26.4,11111222 
NERRS,ioos:station:NOAA.NERRS:rkblhwq:1,2019-08-05T10:45:00Z,26.0257,-81.7332,1.71,25.8,11111222 
NERRS,ioos:station:NOAA.NERRS:rkblhwq:1,2019-08-05T11:45:00Z,26.0257,-81.7332,1.62,23.8,11111222 
NERRS,ioos:station:NOAA.NERRS:rkblhwq:1,2019-08-05T12:45:00Z,26.0257,-81.7332,1.49,25.5,11111222 
NERRS,ioos:station:NOAA.NERRS:rkblhwq:1,2019-08-05T13:45:00Z,26.0257,-81.7332,1.35,25.5,11111222 
NERRS,ioos:station:NOAA.NERRS:rkblhwq:1,2019-08-05T14:45:00Z,26.0257,-81.7332,1.22,25.3,11111222 
NERRS,ioos:station:NOAA.NERRS:rkblhwq:1,2019-08-05T15:45:00Z,26.0257,-81.7332,1.13,25.0,11111222 
NERRS,ioos:station:NOAA.NERRS:rkblhwq:1,2019-08-05T16:45:00Z,26.0257,-81.7332,1.15,23.4,11111222 
NERRS,ioos:station:NOAA.NERRS:rkblhwq:1,2019-08-05T17:45:00Z,26.0257,-81.7332,1.28,22.2,11111222 
NERRS,ioos:station:NOAA.NERRS:rkblhwq:1,2019-08-05T18:45:00Z,26.0257,-81.7332,1.42,23.5,11111222 
NERRS,ioos:station:NOAA.NERRS:rkblhwq:1,2019-08-05T19:45:00Z,26.0257,-81.7332,1.54,24.3,11111222 
NERRS,ioos:station:NOAA.NERRS:rkblhwq:1,2019-08-05T20:45:00Z,26.0257,-81.7332,1.63,25.1,11111222 
NERRS,ioos:station:NOAA.NERRS:rkblhwq:1,2019-08-05T21:45:00Z,26.0257,-81.7332,1.68,25.2,11111222 
NERRS,ioos:station:NOAA.NERRS:rkblhwq:1,2019-08-05T22:45:00Z,26.0257,-81.7332,1.66,25.2,11111222 
NERRS,ioos:station:NOAA.NERRS:rkblhwq:1,2019-08-05T23:45:00Z,26.0257,-81.7332,1.56,24.3,11111222 
NERRS,ioos:station:NOAA.NERRS:rkblhwq:1,2019-08-06T00:45:00Z,26.0257,-81.7332,1.44,24.7,11111222 
NERRS,ioos:station:NOAA.NERRS:rkblhwq:1,2019-08-06T01:45:00Z,26.0257,-81.7332,1.31,24.7,11111222 
NERRS,ioos:station:NOAA.NERRS:rkblhwq:1,2019-08-06T02:45:00Z,26.0257,-81.7332,1.17,24.4,11111222 
NERRS,ioos:station:NOAA.NERRS:rkblhwq:1,2019-08-06T03:45:00Z,26.0257,-81.7332,1.05,24.2,11111222 
NERRS,ioos:station:NOAA.NERRS:rkblhwq:1,2019-08-06T04:45:00Z,26.0257,-81.7332,1.02,24.2,11111222 
NERRS,ioos:station:NOAA.NERRS:rkblhwq:1,2019-08-06T06:45:00Z,26.0257,-81.7332,1.29,22.4,11111222 
NERRS,ioos:station:NOAA.NERRS:rkblhwq:1,2019-08-06T07:45:00Z,26.0257,-81.7332,1.45,23.2,11111222 
NERRS,ioos:station:NOAA.NERRS:rkblhwq:1,2019-08-06T08:45:00Z,26.0257,-81.7332,1.6,24.4,11111222 
NERRS,ioos:station:NOAA.NERRS:rkblhwq:1,2019-08-06T09:45:00Z,26.0257,-81.7332,1.69,25.1,11111222 
NERRS,ioos:station:NOAA.NERRS:rkblhwq:1,2019-08-06T10:45:00Z,26.0257,-81.7332,1.72,25.9,11111222 
NERRS,ioos:station:NOAA.NERRS:rkblhwq:1,2019-08-06T11:45:00Z,26.0257,-81.7332,1.66,25.3,11111222 
NERRS,ioos:station:NOAA.NERRS:rkblhwq:1,2019-08-06T12:45:00Z,26.0257,-81.7332,1.56,24.7,11111222 
NERRS,ioos:station:NOAA.NERRS:rkblhwq:1,2019-08-06T13:45:00Z,26.0257,-81.7332,1.43,24.9,11111222 
NERRS,ioos:station:NOAA.NERRS:rkblhwq:1,2019-08-06T14:45:00Z,26.0257,-81.7332,1.31,24.6,11111222 
NERRS,ioos:station:NOAA.NERRS:rkblhwq:1,2019-08-06T15:45:00Z,26.0257,-81.7332,1.16,22.2,11111222 
NERRS,ioos:station:NOAA.NERRS:rkblhwq:1,2019-08-06T16:45:00Z,26.0257,-81.7332,1.02,22.9,11111222 
NERRS,ioos:station:NOAA.NERRS:rkblhwq:1,2019-08-06T17:45:00Z,26.0257,-81.7332,1.02,23.5,11111222 
NERRS,ioos:station:NOAA.NERRS:rkblhwq:1,2019-08-06T18:45:00Z,26.0257,-81.7332,1.13,21.1,11111222 
NERRS,ioos:station:NOAA.NERRS:rkblhwq:1,2019-08-06T19:45:00Z,26.0257,-81.7332,1.26,22.1,11111222 
NERRS,ioos:station:NOAA.NERRS:rkblhwq:1,2019-08-06T20:45:00Z,26.0257,-81.7332,1.39,22.6,11111222 
NERRS,ioos:station:NOAA.NERRS:rkblhwq:1,2019-08-06T21:45:00Z,26.0257,-81.7332,1.48,24.1,11111222 
NERRS,ioos:station:NOAA.NERRS:rkblhwq:1,2019-08-06T22:45:00Z,26.0257,-81.7332,1.54,24.7,11111222 
NERRS,ioos:station:NOAA.NERRS:rkblhwq:1,2019-08-07T00:45:00Z,26.0257,-81.7332,1.45,23.7,11111222 
NERRS,ioos:station:NOAA.NERRS:rkblhwq:1,2019-08-07T01:45:00Z,26.0257,-81.7332,1.33,22.9,11111222 
NERRS,ioos:station:NOAA.NERRS:rkblhwq:1,2019-08-07T02:45:00Z,26.0257,-81.7332,1.2,23.4,11111222 
NERRS,ioos:station:NOAA.NERRS:rkblhwq:1,2019-08-07T03:45:00Z,26.0257,-81.7332,1.08,22.5,11111222 
NERRS,ioos:station:NOAA.NERRS:rkblhwq:1,2019-08-07T04:45:00Z,26.0257,-81.7332,1.01,23.0,11111222 
NERRS,ioos:station:NOAA.NERRS:rkblhwq:1,2019-08-07T05:45:00Z,26.0257,-81.7332,1.03,22.2,11111222 
NERRS,ioos:station:NOAA.NERRS:rkblhwq:1,2019-08-07T07:45:00Z,26.0257,-81.7332,1.3,22.3,11111222 
NERRS,ioos:station:NOAA.NERRS:rkblhwq:1,2019-08-07T08:45:00Z,26.0257,-81.7332,1.44,22.6,11111222 
NERRS,ioos:station:NOAA.NERRS:rkblhwq:1,2019-08-07T10:45:00Z,26.0257,-81.7332,1.63,24.7,11111222 
NERRS,ioos:station:NOAA.NERRS:rkblhwq:1,2019-08-07T11:45:00Z,26.0257,-81.7332,1.65,25.3,11111222 
NERRS,ioos:station:NOAA.NERRS:rkblhwq:1,2019-08-07T12:45:00Z,26.0257,-81.7332,1.59,24.3,11111222 
NERRS,ioos:station:NOAA.NERRS:rkblhwq:1,2019-08-07T13:45:00Z,26.0257,-81.7332,1.48,23.6,11111222 
NERRS,ioos:station:NOAA.NERRS:rkblhwq:1,2019-08-07T14:45:00Z,26.0257,-81.7332,1.34,24.0,11111222 
NERRS,ioos:station:NOAA.NERRS:rkblhwq:1,2019-08-07T15:45:00Z,26.0257,-81.7332,1.19,23.4,11111222 
NERRS,ioos:station:NOAA.NERRS:rkblhwq:1,2019-08-07T16:45:00Z,26.0257,-81.7332,1.05,22.7,11111222 
NERRS,ioos:station:NOAA.NERRS:rkblhwq:1,2019-08-07T17:45:00Z,26.0257,-81.7332,0.94,22.5,11111222 
NERRS,ioos:station:NOAA.NERRS:rkblhwq:1,2019-08-07T18:45:00Z,26.0257,-81.7332,0.91,22.4,11111222 
NERRS,ioos:station:NOAA.NERRS:rkblhwq:1,2019-08-07T19:45:00Z,26.0257,-81.7332,0.99,19.5,11111222 
NERRS,ioos:station:NOAA.NERRS:rkblhwq:1,2019-08-07T20:45:00Z,26.0257,-81.7332,1.12,20.9,11111222 
NERRS,ioos:station:NOAA.NERRS:rkblhwq:1,2019-08-07T21:45:00Z,26.0257,-81.7332,1.23,22.1,11111222 
NERRS,ioos:station:NOAA.NERRS:rkblhwq:1,2019-08-07T22:45:00Z,26.0257,-81.7332,1.34,22.5,11111222 
NERRS,ioos:station:NOAA.NERRS:rkblhwq:1,2019-08-07T23:45:00Z,26.0257,-81.7332,1.41,23.3,11111222 
NERRS,ioos:station:NOAA.NERRS:rkblhwq:1,2019-08-08T00:45:00Z,26.0257,-81.7332,1.45,24.0,11111222 
NERRS,ioos:station:NOAA.NERRS:rkblhwq:1,2019-08-08T01:45:00Z,26.0257,-81.7332,1.4,22.8,11111222 
NERRS,ioos:station:NOAA.NERRS:rkblhwq:1,2019-08-08T02:45:00Z,26.0257,-81.7332,1.3,23.0,11111222 
NERRS,ioos:station:NOAA.NERRS:rkblhwq:1,2019-08-08T03:45:00Z,26.0257,-81.7332,1.2,22.8,11111222 
NERRS,ioos:station:NOAA.NERRS:rkblhwq:1,2019-08-08T06:45:00Z,26.0257,-81.7332,1.13,23.1,11111222 
NERRS,ioos:station:NOAA.NERRS:rkblhwq:1,2019-08-08T07:45:00Z,26.0257,-81.7332,1.23,21.9,11111222 
NERRS,ioos:station:NOAA.NERRS:rkblhwq:1,2019-08-08T08:45:00Z,26.0257,-81.7332,1.34,22.7,11111222 
NERRS,ioos:station:NOAA.NERRS:rkblhwq:1,2019-08-08T09:45:00Z,26.0257,-81.7332,1.43,23.5,11111222 
NERRS,ioos:station:NOAA.NERRS:rkblhwq:1,2019-08-08T10:45:00Z,26.0257,-81.7332,1.53,24.4,11111222 
NERRS,ioos:station:NOAA.NERRS:rkblhwq:1,2019-08-08T11:45:00Z,26.0257,-81.7332,1.59,25.0,11111222 
NERRS,ioos:station:NOAA.NERRS:rkblhwq:1,2019-08-08T12:45:00Z,26.0257,-81.7332,1.6,25.2,11111222 
NERRS,ioos:station:NOAA.NERRS:rkblhwq:1,2019-08-08T13:45:00Z,26.0257,-81.7332,1.53,24.4,11111222 
NERRS,ioos:station:NOAA.NERRS:rkblhwq:1,2019-08-08T14:45:00Z,26.0257,-81.7332,1.41,23.0,11111222 
NERRS,ioos:station:NOAA.NERRS:rkblhwq:1,2019-08-08T15:45:00Z,26.0257,-81.7332,1.27,23.5,11111222 
NERRS,ioos:station:NOAA.NERRS:rkblhwq:1,2019-08-08T16:45:00Z,26.0257,-81.7332,1.13,23.7,11111222 
NERRS,ioos:station:NOAA.NERRS:rkblhwq:1,2019-08-08T17:45:00Z,26.0257,-81.7332,1.0,22.6,11111222 
NERRS,ioos:station:NOAA.NERRS:rkblhwq:1,2019-08-08T18:45:00Z,26.0257,-81.7332,0.88,20.6,11111222 
NERRS,ioos:station:NOAA.NERRS:rkblhwq:1,2019-08-08T19:45:00Z,26.0257,-81.7332,0.83,20.8,11111222 
NERRS,ioos:station:NOAA.NERRS:rkblhwq:1,2019-08-08T20:45:00Z,26.0257,-81.7332,0.9,19.0,11111222 
NERRS,ioos:station:NOAA.NERRS:rkblhwq:1,2019-08-08T21:45:00Z,26.0257,-81.7332,1.01,20.0,11111222 
NERRS,ioos:station:NOAA.NERRS:rkblhwq:1,2019-08-08T22:45:00Z,26.0257,-81.7332,1.12,21.3,11111222 
NERRS,ioos:station:NOAA.NERRS:rkblhwq:1,2019-08-08T23:45:00Z,26.0257,-81.7332,1.23,21.5,11111222 
NERRS,ioos:station:NOAA.NERRS:rkblhwq:1,2019-08-09T00:45:00Z,26.0257,-81.7332,1.34,22.1,11111222 
NERRS,ioos:station:NOAA.NERRS:rkblhwq:1,2019-08-09T01:45:00Z,26.0257,-81.7332,1.41,23.3,11111222 
NERRS,ioos:station:NOAA.NERRS:rkblhwq:1,2019-08-09T02:45:00Z,26.0257,-81.7332,1.4,22.4,11111222 
NERRS,ioos:station:NOAA.NERRS:rkblhwq:1,2019-08-09T03:45:00Z,26.0257,-81.7332,1.31,22.8,11111222 
NERRS,ioos:station:NOAA.NERRS:rkblhwq:1,2019-08-09T04:45:00Z,26.0257,-81.7332,1.22,22.6,11111222 
NERRS,ioos:station:NOAA.NERRS:rkblhwq:1,2019-08-09T05:45:00Z,26.0257,-81.7332,1.17,22.3,11111222 
NERRS,ioos:station:NOAA.NERRS:rkblhwq:1,2019-08-09T06:45:00Z,26.0257,-81.7332,1.14,22.0,11111222 
NERRS,ioos:station:NOAA.NERRS:rkblhwq:1,2019-08-09T07:45:00Z,26.0257,-81.7332,1.15,22.7,11111222 
NERRS,ioos:station:NOAA.NERRS:rkblhwq:1,2019-08-09T08:45:00Z,26.0257,-81.7332,1.24,21.4,11111222 
NERRS,ioos:station:NOAA.NERRS:rkblhwq:1,2019-08-09T09:45:00Z,26.0257,-81.7332,1.34,21.3,11111222 
NERRS,ioos:station:NOAA.NERRS:rkblhwq:1,2019-08-09T10:45:00Z,26.0257,-81.7332,1.43,23.6,11111222 
NERRS,ioos:station:NOAA.NERRS:rkblhwq:1,2019-08-09T11:45:00Z,26.0257,-81.7332,1.49,24.2,11111222 
NERRS,ioos:station:NOAA.NERRS:rkblhwq:1,2019-08-09T12:45:00Z,26.0257,-81.7332,1.55,24.7,11111222 
NERRS,ioos:station:NOAA.NERRS:rkblhwq:1,2019-08-09T13:45:00Z,26.0257,-81.7332,1.59,25.5,11111222 
NERRS,ioos:station:NOAA.NERRS:rkblhwq:1,2019-08-09T14:45:00Z,26.0257,-81.7332,1.54,24.0,11111222 
NERRS,ioos:station:NOAA.NERRS:rkblhwq:1,2019-08-09T15:45:00Z,26.0257,-81.7332,1.44,24.0,11111222 
NERRS,ioos:station:NOAA.NERRS:rkblhwq:1,2019-08-09T16:45:00Z,26.0257,-81.7332,1.3,22.6,11111222 
NERRS,ioos:station:NOAA.NERRS:rkblhwq:1,2019-08-09T17:45:00Z,26.0257,-81.7332,1.15,23.6,11111222 
NERRS,ioos:station:NOAA.NERRS:rkblhwq:1,2019-08-09T18:45:00Z,26.0257,-81.7332,1.01,22.6,11111222 
NERRS,ioos:station:NOAA.NERRS:rkblhwq:1,2019-08-09T19:45:00Z,26.0257,-81.7332,0.89,20.5,11111222 
NERRS,ioos:station:NOAA.NERRS:rkblhwq:1,2019-08-09T20:45:00Z,26.0257,-81.7332,0.8,16.4,11111222 
NERRS,ioos:station:NOAA.NERRS:rkblhwq:1,2019-08-09T21:45:00Z,26.0257,-81.7332,0.82,20.3,11111222 
NERRS,ioos:station:NOAA.NERRS:rkblhwq:1,2019-08-09T22:45:00Z,26.0257,-81.7332,0.94,17.9,11111222 
NERRS,ioos:station:NOAA.NERRS:rkblhwq:1,2019-08-09T23:45:00Z,26.0257,-81.7332,1.05,19.2,11111222 
NERRS,ioos:station:NOAA.NERRS:rkblhwq:1,2019-08-10T00:45:00Z,26.0257,-81.7332,1.16,21.1,11111222 
NERRS,ioos:station:NOAA.NERRS:rkblhwq:1,2019-08-10T01:45:00Z,26.0257,-81.7332,1.29,21.6,11111222 
NERRS,ioos:station:NOAA.NERRS:rkblhwq:1,2019-08-10T02:45:00Z,26.0257,-81.7332,1.38,22.9,11111222 
NERRS,ioos:station:NOAA.NERRS:rkblhwq:1,2019-08-10T03:45:00Z,26.0257,-81.7332,1.41,23.7,11111222 
NERRS,ioos:station:NOAA.NERRS:rkblhwq:1,2019-08-10T04:45:00Z,26.0257,-81.7332,1.36,21.5,11111222 
NERRS,ioos:station:NOAA.NERRS:rkblhwq:1,2019-08-10T05:45:00Z,26.0257,-81.7332,1.27,21.9,11111222 
NERRS,ioos:station:NOAA.NERRS:rkblhwq:1,2019-08-10T06:45:00Z,26.0257,-81.7332,1.2,21.5,11111222 
NERRS,ioos:station:NOAA.NERRS:rkblhwq:1,2019-08-10T07:45:00Z,26.0257,-81.7332,1.14,21.9,11111222 
NERRS,ioos:station:NOAA.NERRS:rkblhwq:1,2019-08-10T08:45:00Z,26.0257,-81.7332,1.15,21.9,11111222 
NERRS,ioos:station:NOAA.NERRS:rkblhwq:1,2019-08-10T09:45:00Z,26.0257,-81.7332,1.22,21.8,11111222 
NERRS,ioos:station:NOAA.NERRS:rkblhwq:1,2019-08-10T10:45:00Z,26.0257,-81.7332,1.33,20.3,11111222 
NERRS,ioos:station:NOAA.NERRS:rkblhwq:1,2019-08-10T11:45:00Z,26.0257,-81.7332,1.42,23.4,11111222 
NERRS,ioos:station:NOAA.NERRS:rkblhwq:1,2019-08-10T12:45:00Z,26.0257,-81.7332,1.52,24.5,11111222 
NERRS,ioos:station:NOAA.NERRS:rkblhwq:1,2019-08-10T13:45:00Z,26.0257,-81.7332,1.59,23.1,11111222 
NERRS,ioos:station:NOAA.NERRS:rkblhwq:1,2019-08-10T14:45:00Z,26.0257,-81.7332,1.61,25.3,11111222 
NERRS,ioos:station:NOAA.NERRS:rkblhwq:1,2019-08-10T15:45:00Z,26.0257,-81.7332,1.54,24.6,11111222 
NERRS,ioos:station:NOAA.NERRS:rkblhwq:1,2019-08-10T16:45:00Z,26.0257,-81.7332,1.43,22.8,11111222 
NERRS,ioos:station:NOAA.NERRS:rkblhwq:1,2019-08-10T17:45:00Z,26.0257,-81.7332,1.3,23.3,11111222 
NERRS,ioos:station:NOAA.NERRS:rkblhwq:1,2019-08-10T18:45:00Z,26.0257,-81.7332,1.15,23.1,11111222 
NERRS,ioos:station:NOAA.NERRS:rkblhwq:1,2019-08-10T19:45:00Z,26.0257,-81.7332,1.01,19.0,11111222 
NERRS,ioos:station:NOAA.NERRS:rkblhwq:1,2019-08-10T20:45:00Z,26.0257,-81.7332,0.89,17.1,11111222 
NERRS,ioos:station:NOAA.NERRS:rkblhwq:1,2019-08-10T21:45:00Z,26.0257,-81.7332,0.79,14.4,11111222 
NERRS,ioos:station:NOAA.NERRS:rkblhwq:1,2019-08-10T22:45:00Z,26.0257,-81.7332,0.8,17.9,11111222 
NERRS,ioos:station:NOAA.NERRS:rkblhwq:1,2019-08-10T23:45:00Z,26.0257,-81.7332,0.9,17.5,11111222 
NERRS,ioos:station:NOAA.NERRS:rkblhwq:1,2019-08-11T00:45:00Z,26.0257,-81.7332,1.02,18.6,11111222 
NERRS,ioos:station:NOAA.NERRS:rkblhwq:1,2019-08-11T01:45:00Z,26.0257,-81.7332,1.17,20.2,11111222 
NERRS,ioos:station:NOAA.NERRS:rkblhwq:1,2019-08-11T02:45:00Z,26.0257,-81.7332,1.29,22.5,11111222 
NERRS,ioos:station:NOAA.NERRS:rkblhwq:1,2019-08-11T03:45:00Z,26.0257,-81.7332,1.39,23.2,11111222 
NERRS,ioos:station:NOAA.NERRS:rkblhwq:1,2019-08-11T04:45:00Z,26.0257,-81.7332,1.42,24.0,11111222 
NERRS,ioos:station:NOAA.NERRS:rkblhwq:1,2019-08-11T05:45:00Z,26.0257,-81.7332,1.37,22.1,11111222 
NERRS,ioos:station:NOAA.NERRS:rkblhwq:1,2019-08-11T06:45:00Z,26.0257,-81.7332,1.3,21.2,11111222 
NERRS,ioos:station:NOAA.NERRS:rkblhwq:1,2019-08-11T07:45:00Z,26.0257,-81.7332,1.22,20.9,11111222 
NERRS,ioos:station:NOAA.NERRS:rkblhwq:1,2019-08-11T08:45:00Z,26.0257,-81.7332,1.17,19.4,11111222 
NERRS,ioos:station:NOAA.NERRS:rkblhwq:1,2019-08-11T09:45:00Z,26.0257,-81.7332,1.15,21.5,11111222 
NERRS,ioos:station:NOAA.NERRS:rkblhwq:1,2019-08-11T10:45:00Z,26.0257,-81.7332,1.23,21.3,11111222 
NERRS,ioos:station:NOAA.NERRS:rkblhwq:1,2019-08-11T11:45:00Z,26.0257,-81.7332,1.35,21.2,11111222 
NERRS,ioos:station:NOAA.NERRS:rkblhwq:1,2019-08-11T12:45:00Z,26.0257,-81.7332,1.46,23.9,11111222 
NERRS,ioos:station:NOAA.NERRS:rkblhwq:1,2019-08-11T13:45:00Z,26.0257,-81.7332,1.56,25.1,11111222 
NERRS,ioos:station:NOAA.NERRS:rkblhwq:1,2019-08-11T14:45:00Z,26.0257,-81.7332,1.64,24.2,11111222 
NERRS,ioos:station:NOAA.NERRS:rkblhwq:1,2019-08-11T15:45:00Z,26.0257,-81.7332,1.66,26.3,11111222 
NERRS,ioos:station:NOAA.NERRS:rkblhwq:1,2019-08-11T16:45:00Z,26.0257,-81.7332,1.58,23.9,11111222 
NERRS,ioos:station:NOAA.NERRS:rkblhwq:1,2019-08-11T17:45:00Z,26.0257,-81.7332,1.46,23.0,11111222 